Location: Cheyres
(46.8153°N, 6.7877°E)
Time: 04:29:18
(UTC+00:00)

Cosmos 1666 Rocket - Pass Details

Date: 11 May 2021
Orbit: 603 x 634 km, 82.5° (Epoch: 18 June)

Event Time Altitude Azimuth Distance (km) Brightness Sun altitude
Rises 19:23:49 0° 358° (N) 2,910 7.6 -4.9°
Reaches altitude 10° 19:26:14 10° 7° (N) 1,994 6.5 -5.2°
Maximum altitude 19:30:17 35° 74° (ENE) 1,004 4.4 -5.8°
Drops below altitude 10° 19:34:16 10° 140° (SE) 1,961 5.5 -6.4°
Enters shadow 19:35:00 - 144° (SE) 2,238 5.8 -6.5°
